Showing default

GONETS M 19, 46488

Orbit data source: Space-Track

GONETS M 19, 46488 is a payload satellite owned by Gonets (CIS) in LEO that was launched on Mon, 28 Sep 2020 UTC via a SOYUZ-2-1B launch vehicle from the Plesetsk Missile And Space Complex (PKMTR). Payload-class satellites include a variety of spacecraft equipped with specific instruments for various scientific and technological missions. These include communications satellites like Starlink; space stations such as the ISS; scientific satellites like the Hubble; Earth observation satellites from companies like Planet Labs, Umbra, and HawkEye 360; GPS; miniature CubeSats for education and research; and military/defense satellites.

Loading next visibility...
Identifier
46488, 2020-068C
Orbit
LEO
Country
Flag of CISCIS
Related business
Manufacturer
Resehetnev ISS
Mission
Operational Commercial Communications
Bus & Motor
STRELA-3M, Unknown motor
Mass
225 kg wet, 225 kg dry
Launch date (UTC)
2020-09-28 (5 years ago)
Launch vehicle
SOYUZ-2-1B
Launch site
Plesetsk Missile And Space Complex (PKMTR)
Object type
Payload
Rocket body
Debris
Shape & HBR
Cyl + 1 Ant, 3.5 m
Radar Cross Section
1.798 m², Large (>1 m²)

Expand to show TLE details & history
Last TLE update: 19 hours ago

TLE from 19 hours ago
0 GONETS M 19
1 46488U 20068C   25261.30897297  .00000012  00000-0  16542-4 0  9992
2 46488  82.4987 156.2601 0012906 283.6717  76.2926 12.42861793225478
Epoch: 2025-09-18T07:24Z
TLE epoch observation values (Epoch: 2025-09-18T07:24:55.264Z)
Latitude
0.00003°
Longitude
47.55741°
Altitude
1,494.799 km
Speed
7.118 km/s
True Right ascension
10h 25m 02s
True Declination
0° 00' 00"
Sunlit
Object was in daylight at epoch
Visualization orbit readout
Latitude
Unknown
Longitude
Unknown
Altitude
Unknown
Speed
Unknown
Apparent Right ascension
Unknown
Apparent Declination
Unknown
Sunlit
N/A
Visualization observer readout
Local Sidereal Time
18:53:40
Azimuth
Unknown
Elevation
Unknown
Doppler factor
Unknown
Orbital elements
Apogee altitude
1,502.003 km
Perigee altitude
1,481.689 km
Semi-major axis
7,869.983 km
Eccentricity
0.00129
Inclination
82.4987°
RAAN
156.2601°
Arg. of periapsis
283.6717°
True anomaly
76.43633°
Mean anomaly
76.2926°
Eccentric anomaly
76.36446°
Mean motion
3.10873 °/min
Orbital period
115.8 mins
BSTAR
0.000016542
Loading maneuver chart data...
Computing Atmospheric mass density...
Loading historical data...
Loading historical data...
Loading historical data...
Loading historical data...
Loading historical data...
Loading historical data...
Loading historical data...

Documentation

Showing up to 5 results
|